Flag for Australia

Past Weather in Traralgon, Victoria, Australia — Yesterday and Last 2 Weeks

Now
40 °F

Quite cool.


Feels Like: 31 °F
Forecast: 47 / 40 °F
Wind: 20 mph from Southwest

Location: Latrobe Valley Airport

Current Time: Aug 4, 2020 at 6:20:08 am

Latest Report: Aug 4, 2020 at 5:00 am


Visibility: N/A

Pressure: 29.85 "Hg

Humidity: 91%

Dew Point: 38 °F

Location of TraralgonLocation

Past Weather in Traralgon — Graph

°F

Traralgon Temperature Yesterday

Maximum temperature yesterday: 58 °F (at 3:00 pm)
Minimum temperature yesterday: 34 °F (at 4:00 am)
Average temperature yesterday: 47 °F

High & Low Weather Summary for the Past Weeks

 TemperatureHumidityPressure
High65 °F (Aug 2, 2:00 pm)100% (Jul 29, 9:00 am)30.41 "Hg (Jul 29, 9:00 am)
Low31 °F (Jul 25, 2:00 am)44% (Aug 2, 3:00 pm)29.83 "Hg (Aug 4, 4:00 am)
Average48 °F85%30.21 "Hg
* Reported Jul 20 5:00 am — Aug 4 4:00 am, Traralgon. Weather by CustomWeather, © 2020

Note: Actual official high and low records may vary slightly from our data, if they occured in-between our weather recording intervals... More about our weather records

Traralgon Weather History for the Previous 24 Hours

Scroll right to see more
 ConditionsComfort  
Time TempWeatherWind HumidityBarometerVisibility
4:00 am
Tue, Aug 4
43 °FQuite cool.15 mph75%29.83 "HgN/A
3:00 am45 °FPassing clouds.15 mph75%29.83 "HgN/A
2:00 am46 °FCool.17 mph74%29.84 "HgN/A
1:00 am47 °FCool.13 mph74%29.85 "HgN/A
12:00 am47 °FOvercast.10 mph83%29.86 "HgN/A
11:00 pm
Mon, Aug 3
48 °FCool.12 mph81%29.88 "HgN/A
10:00 pm48 °FCool.7 mph87%29.88 "HgN/A
9:00 pm48 °FPassing clouds.8 mph87%29.89 "HgN/A
8:00 pm50 °FCool.8 mph79%29.89 "HgN/A
7:00 pm50 °FCool.8 mph76%29.90 "HgN/A
6:00 pm50 °FOvercast.5 mph76%29.89 "HgN/A
5:00 pm53 °FCool.9 mph71%29.89 "HgN/A
4:00 pm55 °FCool.13 mph63%29.88 "HgN/A
3:00 pm58 °FOvercast.16 mph57%29.89 "HgN/A
2:00 pm57 °FCool.16 mph61%29.90 "HgN/A
1:00 pm57 °FCool.17 mph61%29.92 "HgN/A
12:00 pm57 °FCool.18 mph60%29.96 "HgN/A
11:00 am56 °FCool.15 mph68%29.99 "HgN/A
10:00 am54 °FCool.10 mph74%30.01 "HgN/A
9:00 am46 °FCool.6 mph96%30.02 "HgN/A
8:00 am40 °FChilly.2 mph100%30.03 "HgN/A
7:00 am38 °FChilly.3 mph98%30.03 "HgN/A
6:00 am35 °FPassing clouds.5 mph98%30.02 "Hg3 mi
Weather by CustomWeather, © 2020

See weather overview